User: anonymous   Login
Location: Walnut Point State Park
(39.6958°N, 88.0345°W)
Time: 21:11:38
(UTC-05:00)
Language:

ATLAS 3B R/B - Orbit

View from above orbital plane
View from above orbital plane
View from above satellite
View from above satellite

Ground track
Ground track

The orbit data is extracted from the following two-line orbital elements,

1 28538U 05004B   16176.91499947 0.00000000  00000-0  00000-0 0    01
2 28538  63.8228 117.3307 0170000 202.7940 157.2060 13.43084623    06
Epoch (UTC): 24 June 2016 21:57:35
Eccentricity: 0.0170000
inclination: 63.8228°
perigee height: 971 km
apogee height: 1225 km
right ascension of ascending node: 117.3307°
argument of perigee: 202.7940°
revolutions per day: 13.43084623
mean anomaly at epoch: 157.2060°
orbit number at epoch: 0

The dashed part of the orbit path shows where the satellite is in the earth's shadow,  

DLR